This is the latest recevied weather packets stored in our database for station/object N4QD-13. If no packets are shown the sender has not sent any weather packets the latest 10 day(s).
| Time | Temp. | Humidity | Pressure | Rain* | Wind** | Luminosity | Snow |
|---|---|---|---|---|---|---|---|
| 1777982939 | 17.22° C | 70% | 1014.9 hPa | 0 mm | - | 115 W/m² | - |
| 1777982635 | 16.67° C | 73% | 1014.8 hPa | 0 mm | - | 233 W/m² | - |
| 1777982334 | 16.11° C | 75% | 1014.8 hPa | 0 mm | - | 196 W/m² | - |
| 1777982031 | 15.56° C | 76% | 1014.8 hPa | 0 mm | - | 122 W/m² | - |
| 1777981729 | 15° C | 80% | 1014.8 hPa | 0 mm | - | 92 W/m² | - |
| 1777981425 | 14.44° C | 82% | 1014.8 hPa | 0 mm | - | 81 W/m² | - |
| 1777981122 | 13.89° C | 83% | 1014.7 hPa | 0 mm | - | 156 W/m² | - |
| 1777980819 | 13.33° C | 85% | 1014.8 hPa | 0 mm | - | 94 W/m² | - |
| 1777980514 | 12.78° C | 84% | 1014.6 hPa | 0 mm | - | 91 W/m² | - |
| 1777980212 | 12.78° C | 84% | 1014.8 hPa | 0 mm | - | 78 W/m² | - |
| 1777979907 | 12.78° C | 84% | 1014.6 hPa | 0 mm | - | 65 W/m² | - |
| 1777979603 | 12.22° C | 85% | 1014.5 hPa | 0 mm | - | 52 W/m² | - |
| 1777979299 | 12.22° C | 85% | 1014.3 hPa | 0 mm | - | 41 W/m² | - |
| 1777978997 | 12.22° C | 85% | 1014.4 hPa | 0 mm | - | 33 W/m² | - |
| 1777978694 | 11.67° C | 85% | 1014.3 hPa | 0 mm | - | 30 W/m² | - |
| 1777978389 | 11.67° C | 86% | 1014.4 hPa | 0 mm | - | 26 W/m² | - |
| 1777978086 | 11.67° C | 88% | 1014.2 hPa | 0 mm | - | 22 W/m² | - |
| 1777977783 | 11.11° C | 88% | 1014.1 hPa | 0 mm | - | 18 W/m² | - |
| 1777977479 | 11.11° C | 89% | 1014.1 hPa | 0 mm | - | 15 W/m² | - |
| 1777977177 | 11.11° C | 90% | 1014 hPa | 0 mm | - | 12 W/m² | - |
| 1777976874 | 11.11° C | 89% | 1013.8 hPa | 0 mm | - | 6 W/m² | - |
| 1777976572 | 11.11° C | 90% | 1013.9 hPa | 0 mm | - | 3 W/m² | - |
| 1777976271 | 11.11° C | 89% | 1014.1 hPa | 0 mm | - | 1 W/m² | - |
| 1777975967 | 11.11° C | 89% | 1013.9 hPa | 0 mm | - | 0 W/m² | - |
| 1777975663 | 11.11° C | 89% | 1014 hPa | 0 mm | - | 0 W/m² | - |
* Rain latest hour (hover to see other rain measurements)
** Current wind speed in m/s (hover to see current wind gust speed)